Location: Byszew
(52.1813°N, 19.2693°E)
Time: 14:34:56
(UTC+00:00)

IRS-1A Rocket - Pass Details

Date: 03 March 2021
Orbit: 851 x 931 km, 99.2° (Epoch: 13 April)

Event Time Altitude Azimuth Distance (km) Brightness Sun altitude
Exits shadow 18:03:50 12° 145° (SE) 2,408 6.2 -15.7°
Maximum altitude 18:09:02 60° 67° (ENE) 991 4.3 -16.5°
Drops below altitude 10° 18:14:29 10° 349° (N) 2,508 6.9 -17.3°
Sets 18:16:53 0° 346° (NNW) 3,443 7.7 -17.7°
